Simultaneous Nadir Overpasses (SNOs) Predictions

Prediction of SNOs over PacNW region [( 10.00, 139.50) to ( 22.70, 165.60)] between AQUA and NPP Satellites:

Table of predicted SNOs over PacNW region for the next 30.0 days since TLE Epoch: 5/14/2022
Index Date (AQUA) Time (AQUA) AQUA Lat,Lon Date (NPP) Time (NPP) NPP Lat,Lon Distance(km) Time Diff (sec)
1 05/17/2022 02:34:16 19.40, 163.04 05/17/2022 02:35:10 18.62, 159.57 374.86 54
2 05/19/2022 16:12:48 13.86, 143.36 05/19/2022 16:10:22 14.37, 140.96 265.12 146
3 05/25/2022 03:20:12 11.08, 152.88 05/25/2022 03:23:24 10.24, 148.88 447.21 192
4 05/27/2022 15:22:20 13.13, 155.90 05/27/2022 15:19:42 13.60, 153.50 264.68 158
5 06/02/2022 02:29:40 11.76, 165.44 06/02/2022 02:32:41 10.88, 161.46 445.86 181
6 06/04/2022 16:08:06 21.69, 145.86 06/04/2022 16:07:50 22.27, 142.94 307.48 16
